Whitefield, NH

10:14 PM EDT on April 22, 2018 (GMT -0400)
Mount Washington Regional

Weather History for KHIE - January, 2014

Change the Weather History Date:

Thursday, January 2, 2014

  Actual Average Record
Temperature  
Mean Temperature 2 °F -  
Max Temperature 6 °F 26 °F 41 °F (2011)
Min Temperature -2 °F 6 °F -33 °F (2018)
Degree Days  
Heating Degree Days 63    
Moisture  
Dew Point -6 °F    
Average Humidity 70    
Maximum Humidity 76    
Minimum Humidity 63    
Precipitation  
Precipitation 0.04 in - - ()
Sea Level Pressure  
Sea Level Pressure 30.13 in    
Wind  
Wind Speed 7 mph (NE)    
Max Wind Speed 15 mph    
Max Gust Speed 24 mph    
Visibility 2 miles    
Events Snow    
Averages and records for this station are not official NWS values.
T = Trace of Precipitation, MM = Missing Value Source: NWS Daily Summary

Daily Weather History Graph

Daily Weather History Graph

Search for Another Location

Airport or City:

Astronomy

Jan. 02, 2014 Rise Set
Actual Time 7:22 AM EST 4:18 PM EST
Civil Twilight 6:49 AM EST 4:51 PM EST
Nautical Twilight 6:12 AM EST 5:28 PM EST
Astronomical Twilight 5:37 AM EST 6:03 PM EST
Moon 7:56 AM EST (1/2) 6:16 PM EST (1/2)
Length of Visible Light 10h 02m
Length of Day
8h 56m
New Moon, 2% of the Moon is Illuminated
Jan 2
New Moon
Jan 7
First Quarter
Jan 15
Full
Jan 24
Last Quarter
Jan 30
New

Hourly Weather History & Observations

Time (EST) Temp. Windchill Dew Point Humidity Pressure Visibility Wind Dir Wind Speed Gust Speed Precip Events Conditions
12:52 AM -0.9 °F -11.0 °F -9.9 °F 66% 30.41 in 10.0 mi NNE 4.6 mph - N/A   Overcast
1:52 AM -0.9 °F - -9.9 °F 66% 30.41 in 10.0 mi Calm Calm - N/A   Scattered Clouds
2:52 AM -0.9 °F -8.9 °F -9.0 °F 69% 30.41 in 10.0 mi NNW 3.5 mph - N/A   Partly Cloudy
3:52 AM -0.9 °F -8.9 °F -9.0 °F 69% 30.39 in 10.0 mi NNW 3.5 mph - N/A   Overcast
4:52 AM -2.0 °F -10.1 °F -9.9 °F 69% 30.38 in 10.0 mi ENE 3.5 mph - N/A   Overcast
5:52 AM -2.0 °F -10.1 °F -9.9 °F 69% 30.39 in 10.0 mi NNE 3.5 mph - N/A   Overcast
6:42 AM -2.9 °F -13.3 °F -9.9 °F 72% 30.30 in 2.0 mi NE 4.6 mph - 0.00 in Snow Light Snow
6:52 AM -2.9 °F -13.3 °F -11.0 °F 68% 30.39 in 2.0 mi NNE 4.6 mph - 0.00 in Snow Light Snow
7:48 AM -2.2 °F -10.4 °F -9.4 °F 71% 30.29 in 1.0 mi North 3.5 mph - 0.00 in Snow Light Snow
7:49 AM -2.0 °F -10.1 °F -9.0 °F 72% 30.38 in 1.0 mi North 3.5 mph - 0.00 in Snow Light Snow
7:59 AM -2.0 °F -10.1 °F -9.0 °F 72% 30.28 in 0.8 mi North 3.5 mph - 0.00 in Snow Light Snow
8:24 AM -2.0 °F -10.1 °F -9.0 °F 72% 30.29 in 0.8 mi North 3.5 mph - 0.00 in Snow Light Snow
8:52 AM -2.0 °F -10.1 °F -8.0 °F 76% 30.38 in 0.8 mi East 3.5 mph - 0.00 in Snow Light Snow
9:15 AM -0.9 °F -8.9 °F -8.0 °F 72% 30.28 in 1.0 mi East 3.5 mph - 0.01 in Snow Light Snow
9:22 AM -0.9 °F - -8.0 °F 72% 30.28 in 0.8 mi Calm Calm - 0.01 in Snow Light Snow
9:52 AM -0.0 °F -7.9 °F -7.1 °F 72% 30.37 in 0.8 mi NNE 3.5 mph - 0.01 in Snow Light Snow
10:08 AM -0.0 °F - -7.1 °F 72% 30.27 in 1.0 mi Calm Calm - 0.00 in Snow Light Snow
10:16 AM -0.0 °F -9.9 °F -7.1 °F 72% 30.26 in 0.8 mi NE 4.6 mph - 0.01 in Snow Light Snow
10:38 AM 1.0 °F -10.3 °F -7.1 °F 69% 30.25 in 1.2 mi NE 5.8 mph - 0.01 in Snow Light Snow
10:49 AM 1.4 °F -8.3 °F -7.6 °F 66% 30.23 in 0.8 mi NE 4.6 mph - 0.01 in Snow Light Snow
10:50 AM 1.0 °F -6.7 °F -7.1 °F 69% 30.33 in 0.8 mi NE 3.5 mph - 0.01 in Snow Light Snow
11:35 AM 1.9 °F -5.6 °F -5.1 °F 72% 30.19 in 1.0 mi NNE 3.5 mph - 0.00 in Snow Light Snow
11:52 AM 1.9 °F -5.6 °F -5.1 °F 72% 30.28 in 0.8 mi NE 3.5 mph - 0.00 in Snow Light Snow
12:45 PM 3.0 °F -6.4 °F -4.0 °F 73% 30.14 in 1.0 mi NNE 4.6 mph - 0.01 in Snow Light Snow
12:52 PM 3.0 °F -6.4 °F -4.0 °F 73% 30.22 in 1.0 mi NNE 4.6 mph - 0.01 in Snow Light Snow
1:02 PM 3.9 °F -6.9 °F -2.9 °F 73% 30.13 in 0.8 mi NNE 5.8 mph - 0.00 in Snow Light Snow
1:52 PM 3.9 °F -6.9 °F -2.9 °F 73% 30.19 in 0.8 mi NNE 5.8 mph - 0.00 in Snow Light Snow
2:52 PM 5.0 °F -6.9 °F -2.0 °F 73% 30.17 in 0.5 mi NNE 6.9 mph - 0.01 in Snow Snow
3:10 PM 5.0 °F -6.9 °F -2.0 °F 73% 30.07 in 1.0 mi NE 6.9 mph - 0.00 in Snow Light Snow
3:20 PM 5.0 °F -10.0 °F -2.0 °F 73% 30.06 in 0.5 mi NE 10.4 mph - 0.00 in Snow Snow
3:52 PM 5.0 °F -13.0 °F -2.0 °F 73% 30.13 in 0.5 mi ENE 15.0 mph - 0.00 in Snow Snow
4:35 PM 6.1 °F -9.5 °F -2.9 °F 67% 30.02 in 1.2 mi East 11.5 mph - 0.00 in Snow Light Snow
4:52 PM 6.1 °F -10.9 °F -2.9 °F 67% 30.11 in 1.8 mi ENE 13.8 mph - 0.00 in Snow Light Snow
5:02 PM 5.0 °F -12.3 °F -2.9 °F 70% 30.01 in 2.5 mi ENE 13.8 mph - 0.00 in Snow Light Snow
5:20 PM 5.0 °F -11.6 °F -2.9 °F 70% 30.03 in 1.0 mi ENE 12.7 mph 19.6 mph 0.00 in Snow Light Snow
5:45 PM 5.0 °F -11.6 °F -2.9 °F 70% 30.03 in 1.8 mi ENE 12.7 mph - 0.00 in Snow Light Snow
5:52 PM 5.0 °F -10.8 °F -2.9 °F 70% 30.12 in 1.5 mi East 11.5 mph - 0.00 in Snow Light Snow
5:59 PM 5.0 °F -10.8 °F -2.9 °F 70% 30.02 in 0.8 mi East 11.5 mph 19.6 mph 0.00 in Snow Light Snow
6:15 PM 5.0 °F -10.8 °F -2.9 °F 70% 30.01 in 1.0 mi ENE 11.5 mph - 0.00 in Snow Light Snow
6:25 PM 5.0 °F -11.6 °F -2.9 °F 70% 30.01 in 0.8 mi ENE 12.7 mph - 0.00 in Snow Light Snow
6:39 PM 3.9 °F -11.3 °F -2.9 °F 73% 30.01 in 1.0 mi NE 10.4 mph - 0.00 in Snow Light Snow
6:52 PM 5.0 °F -13.0 °F -2.9 °F 70% 30.09 in 1.2 mi ENE 15.0 mph - 0.00 in Snow Light Snow
7:10 PM 5.0 °F -12.3 °F -4.0 °F 66% 29.99 in 2.0 mi ENE 13.8 mph - 0.00 in Snow Light Snow
7:43 PM 5.0 °F -13.0 °F -4.0 °F 66% 29.97 in 3.0 mi ENE 15.0 mph 20.7 mph 0.00 in Snow Light Snow
7:52 PM 3.9 °F -14.3 °F -4.0 °F 70% 30.06 in 3.0 mi ENE 15.0 mph 19.6 mph 0.00 in Snow Light Snow
7:57 PM 3.9 °F -13.7 °F -5.1 °F 66% 29.96 in 1.8 mi East 13.8 mph 23.0 mph 0.00 in Snow Light Snow
8:15 PM 3.9 °F -12.2 °F -4.0 °F 70% 29.96 in 1.2 mi East 11.5 mph 20.7 mph 0.00 in Snow Light Snow
8:30 PM 3.0 °F -13.3 °F -5.1 °F 69% 29.96 in 1.0 mi East 11.5 mph 18.4 mph 0.00 in Snow Light Snow
8:52 PM 3.0 °F -13.3 °F -6.0 °F 66% 30.04 in 1.0 mi East 11.5 mph 24.2 mph 0.00 in Snow Light Snow
9:01 PM 1.9 °F -14.7 °F -5.1 °F 72% 29.94 in 0.8 mi East 11.5 mph 20.7 mph 0.00 in Snow Light Snow
9:14 PM 1.9 °F -15.5 °F -6.0 °F 69% 29.94 in 1.0 mi East 12.7 mph 21.9 mph 0.00 in Snow Light Snow
9:32 PM 1.9 °F -15.5 °F -7.1 °F 66% 29.93 in 1.2 mi East 12.7 mph - 0.00 in Snow Light Snow
9:48 PM 1.4 °F -16.9 °F -7.6 °F 66% 29.93 in 0.8 mi East 13.8 mph 20.7 mph 0.00 in Snow Light Snow
9:52 PM 1.0 °F -16.6 °F -8.0 °F 66% 30.02 in 0.8 mi East 12.7 mph 19.6 mph 0.00 in Snow Light Snow
10:06 PM -0.0 °F -18.0 °F -8.0 °F 69% 29.93 in 1.0 mi East 12.7 mph 23.0 mph 0.00 in Snow Light Snow
10:22 PM 1.0 °F -16.6 °F -8.0 °F 66% 29.93 in 1.2 mi East 12.7 mph 24.2 mph 0.00 in Snow Light Snow
10:52 PM -0.0 °F -18.0 °F -8.0 °F 69% 30.01 in 1.5 mi East 12.7 mph - 0.00 in Snow Light Snow
11:09 PM -0.0 °F -18.7 °F -9.0 °F 66% 29.90 in 2.0 mi East 13.8 mph 20.7 mph 0.00 in Snow Light Snow
11:28 PM 1.0 °F -17.3 °F -9.0 °F 63% 29.88 in 4.0 mi East 13.8 mph - 0.00 in Snow Light Snow
11:44 PM 1.0 °F -16.6 °F -9.0 °F 63% 29.87 in 2.0 mi ENE 12.7 mph 19.6 mph 0.00 in Snow Light Snow
11:52 PM 1.0 °F -17.3 °F -8.0 °F 66% 29.96 in 1.5 mi East 13.8 mph 20.7 mph 0.00 in Snow Light Snow